| time (UTC) | temp F | wind direction | speed knots | gust knots | rain 1hr in | rain 24hr in | rain mn in | humidity % | barometer mb |
| 20260507224042 | 52 | 50 | 0.9 | 5.2 | 0.00 | 0.00 | 0.00 | 78 | 1015.8 |
| 20260507223545 | 53 | 0 | 0.0 | 5.2 | 0.00 | 0.00 | 0.00 | 77 | 1016.0 |
| 20260507223049 | 53 | 115 | 1.7 | 5.2 | 0.00 | 0.00 | 0.00 | 77 | 1016.1 |
| 20260507222543 | 53 | 115 | 1.7 | 7.0 | 0.00 | 0.00 | 0.00 | 77 | 1016.0 |
| 20260507222043 | 53 | 101 | 1.7 | 7.0 | 0.00 | 0.00 | 0.00 | 77 | 1016.0 |
| 20260507221552 | 53 | 123 | 0.9 | 6.1 | 0.00 | 0.00 | 0.00 | 76 | 1016.0 |
| 20260507221038 | 53 | 87 | 1.7 | 7.0 | 0.00 | 0.00 | 0.00 | 76 | 1016.0 |
| 20260507220538 | 53 | 0 | 2.6 | 7.0 | 0.00 | 0.00 | 0.00 | 76 | 1016.1 |
| 20260507220052 | 53 | 124 | 0.9 | 5.2 | 0.00 | 0.00 | 0.00 | 76 | 1016.0 |
| 20260507215540 | 53 | 130 | 1.7 | 5.2 | 0.00 | 0.00 | 0.00 | 76 | 1016.0 |
| 20260507215038 | 53 | 107 | 0.9 | 3.5 | 0.00 | 0.00 | 0.00 | 76 | 1016.1 |
| 20260507214550 | 54 | 115 | 1.7 | 6.1 | 0.00 | 0.00 | 0.00 | 75 | 1016.1 |
| 20260507214039 | 54 | 0 | 1.7 | 6.1 | 0.00 | 0.00 | 0.00 | 75 | 1016.2 |
| 20260507213538 | 54 | 111 | 1.7 | 5.2 | 0.00 | 0.00 | 0.00 | 75 | 1016.1 |
| 20260507213100 | 54 | 85 | 0.9 | 5.2 | 0.00 | 0.00 | 0.00 | 75 | 1016.2 |
| 20260507212539 | 54 | 111 | 0.9 | 7.0 | 0.00 | 0.00 | 0.00 | 75 | 1016.1 |
| 20260507212037 | 54 | 92 | 0.9 | 7.0 | 0.00 | 0.00 | 0.00 | 75 | 1016.1 |
| 20260507211548 | 54 | 94 | 1.7 | 7.0 | 0.00 | 0.00 | 0.00 | 75 | 1016.1 |
| 20260507211037 | 54 | 98 | 0.0 | 3.5 | 0.00 | 0.00 | 0.00 | 74 | 1016.1 |
| 20260507210537 | 54 | 86 | 0.9 | 3.5 | 0.00 | 0.00 | 0.00 | 74 | 1016.0 |
| 20260507210047 | 54 | 86 | 0.9 | 3.5 | 0.00 | 0.00 | 0.00 | 74 | 1016.0 |
| 20260507205537 | 54 | 0 | 0.0 | 5.2 | 0.00 | 0.00 | 0.00 | 74 | 1015.9 |
| 20260507205045 | 54 | 96 | 1.7 | 6.1 | 0.00 | 0.00 | 0.00 | 74 | 1015.8 |
| 20260507204555 | 54 | 94 | 0.9 | 6.1 | 0.00 | 0.00 | 0.00 | 74 | 1015.8 |
| 20260507204037 | 54 | 92 | 2.6 | 7.0 | 0.00 | 0.00 | 0.00 | 73 | 1015.9 |
| 20260507203537 | 54 | 103 | 1.7 | 7.8 | 0.00 | 0.00 | 0.00 | 73 | 1015.9 |
| 20260507203050 | 55 | 133 | 1.7 | 7.8 | 0.00 | 0.00 | 0.00 | 73 | 1015.8 |
| 20260507202538 | 55 | 95 | 1.7 | 7.8 | 0.00 | 0.00 | 0.00 | 73 | 1015.7 |
| 20260507202037 | 55 | 78 | 2.6 | 7.8 | 0.00 | 0.00 | 0.00 | 73 | 1015.7 |
| 20260507201600 | 55 | 85 | 1.7 | 7.8 | 0.00 | 0.00 | 0.00 | 73 | 1015.6 |
| 20260507201039 | 55 | 0 | 1.7 | 7.8 | 0.00 | 0.00 | 0.00 | 72 | 1015.6 |
| 20260507200542 | 55 | 105 | 2.6 | 7.8 | 0.00 | 0.00 | 0.00 | 72 | 1015.5 |
| 20260507200050 | 55 | 115 | 0.9 | 5.2 | 0.00 | 0.00 | 0.00 | 71 | 1015.4 |
| 20260507195537 | 55 | 130 | 1.7 | 6.1 | 0.00 | 0.00 | 0.00 | 71 | 1015.3 |
| 20260507195044 | 56 | 92 | 1.7 | 7.0 | 0.00 | 0.00 | 0.00 | 70 | 1015.3 |
| 20260507194553 | 56 | 126 | 2.6 | 7.8 | 0.00 | 0.00 | 0.00 | 70 | 1015.2 |
| 20260507194042 | 56 | 101 | 4.3 | 7.8 | 0.00 | 0.00 | 0.00 | 69 | 1015.2 |
| 20260507193541 | 56 | 124 | 2.6 | 7.8 | 0.00 | 0.00 | 0.00 | 69 | 1015.1 |
| 20260507193044 | 56 | 142 | 4.3 | 7.8 | 0.00 | 0.00 | 0.00 | 68 | 1015.1 |
| 20260507192540 | 56 | 146 | 4.3 | 7.8 | 0.00 | 0.00 | 0.00 | 68 | 1015.0 |
| 20260507192040 | 56 | 98 | 2.6 | 7.0 | 0.00 | 0.00 | 0.00 | 67 | 1015.0 |
| 20260507191610 | 56 | 0 | 0.9 | 6.1 | 0.00 | 0.00 | 0.00 | 66 | 1015.0 |
| 20260507191041 | 56 | 105 | 3.5 | 6.1 | 0.00 | 0.00 | 0.00 | 66 | 1015.0 |
| 20260507190543 | 56 | 105 | 2.6 | 6.1 | 0.00 | 0.00 | 0.00 | 64 | 1014.9 |
| 20260507190052 | 57 | 115 | 0.9 | 7.8 | 0.00 | 0.00 | 0.00 | 64 | 1014.9 |
| 20260507185542 | 57 | 113 | 2.6 | 8.7 | 0.00 | 0.00 | 0.00 | 63 | 1015.0 |
| 20260507185042 | 57 | 132 | 3.5 | 8.7 | 0.00 | 0.00 | 0.00 | 63 | 1014.9 |
| 20260507184602 | 57 | 130 | 1.7 | 7.0 | 0.00 | 0.00 | 0.00 | 64 | 1014.9 |
| 20260507184044 | 57 | 117 | 1.7 | 7.8 | 0.00 | 0.00 | 0.00 | 64 | 1014.7 |
| 20260507183542 | 57 | 125 | 3.5 | 9.6 | 0.00 | 0.00 | 0.00 | 64 | 1014.8 |
| 20260507183049 | 57 | 136 | 4.3 | 10.4 | 0.00 | 0.00 | 0.00 | 64 | 1014.8 |
| 20260507182541 | 57 | 142 | 5.2 | 10.4 | 0.00 | 0.00 | 0.00 | 63 | 1014.7 |
| 20260507182042 | 57 | 134 | 3.5 | 10.4 | 0.00 | 0.00 | 0.00 | 63 | 1014.7 |
| 20260507181548 | 57 | 130 | 5.2 | 10.4 | 0.00 | 0.00 | 0.00 | 62 | 1014.7 |
| 20260507181042 | 57 | 150 | 5.2 | 10.4 | 0.00 | 0.00 | 0.00 | 62 | 1014.6 |
| 20260507180540 | 57 | 169 | 4.3 | 9.6 | 0.00 | 0.00 | 0.00 | 61 | 1014.6 |
| 20260507180047 | 58 | 120 | 2.6 | 9.6 | 0.00 | 0.00 | 0.00 | 61 | 1014.5 |
| 20260507175546 | 58 | 115 | 3.5 | 9.6 | 0.00 | 0.00 | 0.00 | 61 | 1014.5 |
| 20260507175041 | 58 | 143 | 3.5 | 8.7 | 0.00 | 0.00 | 0.00 | 61 | 1014.5 |
| 20260507174549 | 58 | 126 | 2.6 | 10.4 | 0.00 | 0.00 | 0.00 | 62 | 1014.5 |
| 20260507174042 | 58 | 124 | 4.3 | 10.4 | 0.00 | 0.00 | 0.00 | 61 | 1014.5 |
| 20260507173542 | 58 | 108 | 4.3 | 9.6 | 0.00 | 0.00 | 0.00 | 62 | 1014.5 |
| 20260507173050 | 58 | 103 | 2.6 | 8.7 | 0.00 | 0.00 | 0.00 | 62 | 1014.4 |
| 20260507172541 | 58 | 128 | 3.5 | 8.7 | 0.00 | 0.00 | 0.00 | 61 | 1014.4 |
| 20260507172043 | 58 | 123 | 4.3 | 9.6 | 0.00 | 0.00 | 0.00 | 61 | 1014.4 |
| 20260507171554 | 58 | 128 | 4.3 | 9.6 | 0.00 | 0.00 | 0.00 | 61 | 1014.4 |
| 20260507171042 | 58 | 100 | 4.3 | 9.6 | 0.00 | 0.00 | 0.00 | 61 | 1014.4 |
| 20260507170542 | 58 | 96 | 5.2 | 10.4 | 0.00 | 0.00 | 0.00 | 60 | 1014.4 |
| 20260507170052 | 58 | 110 | 6.1 | 10.4 | 0.00 | 0.00 | 0.00 | 60 | 1014.4 |
| 20260507165541 | 59 | 135 | 5.2 | 9.6 | 0.00 | 0.00 | 0.00 | 60 | 1014.4 |
| 20260507165042 | 59 | 107 | 4.3 | 8.7 | 0.00 | 0.00 | 0.00 | 59 | 1014.4 |
| 20260507164605 | 59 | 93 | 3.5 | 10.4 | 0.00 | 0.00 | 0.00 | 58 | 1014.4 |
| 20260507164042 | 60 | 77 | 2.6 | 10.4 | 0.00 | 0.00 | 0.00 | 60 | 1014.3 |
| 20260507163541 | 60 | 85 | 3.5 | 10.4 | 0.00 | 0.00 | 0.00 | 59 | 1014.3 |
| 20260507163052 | 60 | 24 | 3.5 | 7.8 | 0.00 | 0.00 | 0.00 | 59 | 1014.3 |
| 20260507162541 | 60 | 57 | 3.5 | 8.7 | 0.00 | 0.00 | 0.00 | 59 | 1014.3 |
| 20260507162042 | 60 | 63 | 3.5 | 8.7 | 0.00 | 0.00 | 0.00 | 59 | 1014.2 |
| 20260507161554 | 60 | 90 | 2.6 | 7.0 | 0.00 | 0.00 | 0.00 | 58 | 1014.4 |
| 20260507161041 | 60 | 54 | 2.6 | 5.2 | 0.00 | 0.00 | 0.00 | 54 | 1014.4 |
| 20260507160541 | 60 | 154 | 2.6 | 7.0 | 0.00 | 0.00 | 0.00 | 51 | 1014.3 |
| 20260507160048 | 60 | 94 | 2.6 | 11.3 | 0.00 | 0.00 | 0.00 | 56 | 1014.3 |
| 20260507155543 | 60 | 82 | 5.2 | 11.3 | 0.00 | 0.00 | 0.00 | 52 | 1014.3 |
| 20260507155042 | 60 | 61 | 3.5 | 7.8 | 0.00 | 0.00 | 0.00 | 55 | 1014.3 |
| 20260507154549 | 61 | 115 | 1.7 | 7.8 | 0.00 | 0.00 | 0.00 | 55 | 1014.4 |
| 20260507154043 | 61 | 80 | 2.6 | 13.0 | 0.00 | 0.00 | 0.00 | 52 | 1014.5 |
| 20260507153544 | 62 | 114 | 4.3 | 13.0 | 0.00 | 0.00 | 0.00 | 49 | 1014.4 |
| 20260507153050 | 63 | 130 | 1.7 | 7.8 | 0.00 | 0.00 | 0.00 | 51 | 1014.4 |
| 20260507152542 | 63 | 99 | 2.6 | 7.8 | 0.00 | 0.00 | 0.00 | 53 | 1014.4 |
| 20260507152044 | 63 | 85 | 2.6 | 7.8 | 0.00 | 0.00 | 0.00 | 51 | 1014.5 |
| 20260507151550 | 63 | 75 | 1.7 | 7.0 | 0.00 | 0.00 | 0.00 | 53 | 1014.5 |
| 20260507151042 | 61 | 77 | 0.9 | 6.1 | 0.00 | 0.00 | 0.00 | 53 | 1014.6 |
| 20260507150541 | 60 | 0 | 1.7 | 6.1 | 0.00 | 0.00 | 0.00 | 51 | 1014.6 |
| 20260507150050 | 60 | 0 | 0.0 | 6.1 | 0.00 | 0.00 | 0.00 | 49 | 1014.6 |
| 20260507145540 | 60 | 171 | 2.6 | 6.1 | 0.00 | 0.00 | 0.00 | 50 | 1014.5 |
| 20260507145041 | 60 | 184 | 2.6 | 7.0 | 0.00 | 0.00 | 0.00 | 52 | 1014.6 |
| 20260507144549 | 60 | 150 | 3.5 | 7.0 | 0.00 | 0.00 | 0.00 | 52 | 1014.6 |
| 20260507144041 | 60 | 195 | 0.9 | 7.0 | 0.00 | 0.00 | 0.00 | 56 | 1014.5 |
| 20260507143540 | 60 | 317 | 2.6 | 7.0 | 0.00 | 0.00 | 0.00 | 55 | 1014.5 |
| 20260507143104 | 61 | 93 | 0.9 | 7.0 | 0.00 | 0.00 | 0.00 | 52 | 1014.5 |
| 20260507142540 | 60 | 165 | 1.7 | 7.0 | 0.00 | 0.00 | 0.00 | 54 | 1014.5 |
| 20260507142040 | 60 | 65 | 1.7 | 6.1 | 0.00 | 0.00 | 0.00 | 52 | 1014.5 |
| 20260507141604 | 60 | 0 | 1.7 | 6.1 | 0.00 | 0.00 | 0.00 | 53 | 1014.5 |
| 20260507141040 | 60 | 105 | 1.7 | 7.0 | 0.00 | 0.00 | 0.00 | 51 | 1014.6 |
| 20260507140544 | 60 | 105 | 1.7 | 7.8 | 0.00 | 0.00 | 0.00 | 51 | 1014.7 |
| 20260507140047 | 60 | 151 | 2.6 | 7.8 | 0.00 | 0.00 | 0.00 | 52 | 1014.7 |
| 20260507135540 | 61 | 111 | 2.6 | 7.8 | 0.00 | 0.00 | 0.00 | 51 | 1014.7 |
| 20260507135041 | 62 | 78 | 1.7 | 7.8 | 0.00 | 0.00 | 0.00 | 56 | 1014.8 |
| 20260507134553 | 60 | 34 | 2.6 | 7.8 | 0.00 | 0.00 | 0.00 | 57 | 1014.8 |
| 20260507134040 | 59 | 0 | 1.7 | 7.0 | 0.00 | 0.00 | 0.00 | 59 | 1014.7 |
| 20260507133541 | 59 | 23 | 2.6 | 9.6 | 0.00 | 0.00 | 0.00 | 60 | 1014.9 |
| 20260507133050 | 59 | 30 | 2.6 | 9.6 | 0.00 | 0.00 | 0.00 | 59 | 1014.8 |
| 20260507132540 | 60 | 351 | 3.5 | 9.6 | 0.00 | 0.00 | 0.00 | 56 | 1014.6 |
| 20260507132040 | 60 | 355 | 1.7 | 7.8 | 0.00 | 0.00 | 0.00 | 59 | 1014.7 |
| 20260507131600 | 60 | 37 | 3.5 | 7.8 | 0.00 | 0.00 | 0.00 | 57 | 1014.7 |
| 20260507131041 | 60 | 19 | 3.5 | 7.0 | 0.00 | 0.00 | 0.00 | 58 | 1014.7 |
| 20260507130541 | 61 | 11 | 1.7 | 9.6 | 0.00 | 0.00 | 0.00 | 54 | 1014.7 |
| 20260507130049 | 62 | 325 | 3.5 | 9.6 | 0.00 | 0.00 | 0.00 | 53 | 1014.7 |
| 20260507125540 | 63 | 332 | 4.3 | 9.6 | 0.00 | 0.00 | 0.00 | 55 | 1014.8 |
| 20260507125045 | 65 | 35 | 1.7 | 6.1 | 0.00 | 0.00 | 0.00 | 50 | 1014.9 |
| 20260507124548 | 65 | 233 | 0.9 | 7.8 | 0.00 | 0.00 | 0.00 | 52 | 1014.8 |
| 20260507124040 | 64 | 255 | 3.5 | 7.8 | 0.00 | 0.00 | 0.00 | 55 | 1014.9 |
| 20260507123541 | 64 | 200 | 3.5 | 7.0 | 0.00 | 0.00 | 0.00 | 56 | 1014.9 |
| 20260507123109 | 62 | 184 | 2.6 | 7.0 | 0.00 | 0.00 | 0.00 | 49 | 1014.9 |
| 20260507122540 | 64 | 132 | 1.7 | 7.0 | 0.00 | 0.00 | 0.00 | 50 | 1014.9 |
| 20260507122040 | 62 | 197 | 3.5 | 7.0 | 0.00 | 0.00 | 0.00 | 59 | 1015.0 |
| 20260507121550 | 61 | 174 | 1.7 | 6.1 | 0.00 | 0.00 | 0.00 | 50 | 1015.1 |
| 20260507121041 | 60 | 21 | 0.9 | 7.0 | 0.00 | 0.00 | 0.00 | 52 | 1015.0 |
| 20260507120540 | 60 | 182 | 2.6 | 7.0 | 0.00 | 0.00 | 0.00 | 52 | 1015.0 |
| 20260507120052 | 62 | 178 | 1.7 | 8.7 | 0.00 | 0.00 | 0.00 | 48 | 1015.3 |
| 20260507115541 | 65 | 258 | 4.3 | 8.7 | 0.00 | 0.00 | 0.00 | 54 | 1015.3 |
| 20260507115042 | 63 | 214 | 2.6 | 7.8 | 0.00 | 0.00 | 0.00 | 59 | 1015.2 |
| 20260507114553 | 59 | 0 | 0.9 | 7.0 | 0.00 | 0.00 | 0.00 | 56 | 1015.3 |
| 20260507114041 | 60 | 120 | 2.6 | 7.8 | 0.00 | 0.00 | 0.00 | 52 | 1015.2 |
| 20260507113543 | 61 | 196 | 2.6 | 7.8 | 0.00 | 0.00 | 0.00 | 60 | 1015.3 |
| 20260507113046 | 61 | 182 | 0.0 | 4.3 | 0.00 | 0.00 | 0.00 | 55 | 1015.2 |
| 20260507112542 | 61 | 271 | 0.0 | 3.5 | 0.00 | 0.00 | 0.00 | 56 | 1015.3 |
| 20260507112042 | 62 | 0 | 0.9 | 5.2 | 0.00 | 0.00 | 0.00 | 58 | 1015.4 |
| 20260507111549 | 61 | 0 | 0.9 | 5.2 | 0.00 | 0.00 | 0.00 | 55 | 1015.4 |
| 20260507111043 | 61 | 0 | 2.6 | 7.8 | 0.00 | 0.00 | 0.00 | 52 | 1015.4 |
| 20260507110542 | 63 | 158 | 3.5 | 7.8 | 0.00 | 0.00 | 0.00 | 53 | 1015.4 |
| 20260507110056 | 63 | 204 | 2.6 | 7.0 | 0.00 | 0.00 | 0.00 | 61 | 1015.5 |
| 20260507105541 | 60 | 169 | 0.9 | 7.0 | 0.00 | 0.00 | 0.00 | 56 | 1015.6 |
| 20260507105041 | 59 | 101 | 2.6 | 7.0 | 0.00 | 0.00 | 0.00 | 54 | 1015.6 |
| 20260507104549 | 59 | 116 | 1.7 | 7.0 | 0.00 | 0.00 | 0.00 | 57 | 1015.6 |
| 20260507104041 | 60 | 182 | 2.6 | 7.0 | 0.00 | 0.00 | 0.00 | 55 | 1015.5 |
| 20260507103541 | 60 | 137 | 0.9 | 6.1 | 0.00 | 0.00 | 0.00 | 56 | 1015.6 |
| 20260507103048 | 60 | 194 | 1.7 | 6.1 | 0.00 | 0.00 | 0.00 | 66 | 1015.7 |
| 20260507102541 | 59 | 171 | 0.9 | 7.8 | 0.00 | 0.00 | 0.00 | 61 | 1015.7 |
| 20260507102040 | 59 | 144 | 2.6 | 9.6 | 0.00 | 0.00 | 0.00 | 59 | 1015.7 |
| 20260507101546 | 61 | 184 | 4.3 | 9.6 | 0.00 | 0.00 | 0.00 | 63 | 1015.7 |
| 20260507101041 | 61 | 190 | 1.7 | 6.1 | 0.00 | 0.00 | 0.00 | 67 | 1015.7 |
| 20260507100542 | 59 | 184 | 2.6 | 8.7 | 0.00 | 0.00 | 0.00 | 65 | 1015.7 |
| 20260507100055 | 57 | 226 | 3.5 | 8.7 | 0.00 | 0.00 | 0.00 | 67 | 1015.7 |
| 20260507095541 | 58 | 197 | 1.7 | 6.1 | 0.00 | 0.00 | 0.00 | 65 | 1015.7 |
| 20260507095041 | 59 | 150 | 1.7 | 7.8 | 0.00 | 0.00 | 0.00 | 62 | 1015.7 |
| 20260507094551 | 57 | 180 | 3.5 | 7.8 | 0.00 | 0.00 | 0.00 | 63 | 1015.7 |
| 20260507094043 | 57 | 180 | 0.9 | 6.1 | 0.00 | 0.00 | 0.00 | 65 | 1015.7 |
| 20260507093541 | 57 | 169 | 1.7 | 7.8 | 0.00 | 0.00 | 0.00 | 63 | 1015.7 |
| 20260507093050 | 56 | 0 | 2.6 | 7.8 | 0.00 | 0.00 | 0.00 | 66 | 1015.7 |
| 20260507092540 | 56 | 128 | 2.6 | 6.1 | 0.00 | 0.00 | 0.00 | 65 | 1015.6 |
| 20260507092040 | 56 | 97 | 0.9 | 6.1 | 0.00 | 0.00 | 0.00 | 66 | 1015.7 |
| 20260507091550 | 57 | 169 | 1.7 | 7.0 | 0.00 | 0.00 | 0.00 | 67 | 1015.7 |
| 20260507091041 | 56 | 113 | 2.6 | 7.0 | 0.00 | 0.00 | 0.00 | 66 | 1015.8 |
| 20260507090541 | 56 | 175 | 1.7 | 5.2 | 0.00 | 0.00 | 0.00 | 67 | 1015.8 |
| 20260507090057 | 57 | 189 | 2.6 | 7.0 | 0.00 | 0.00 | 0.00 | 74 | 1015.9 |
| 20260507085543 | 55 | 186 | 2.6 | 7.0 | 0.00 | 0.00 | 0.00 | 77 | 1015.8 |
| 20260507085040 | 53 | 188 | 3.5 | 7.0 | 0.00 | 0.00 | 0.00 | 76 | 1015.8 |
| 20260507084555 | 53 | 0 | 2.6 | 7.0 | 0.00 | 0.00 | 0.00 | 76 | 1015.8 |
| 20260507084041 | 53 | 0 | 1.7 | 6.1 | 0.00 | 0.00 | 0.00 | 76 | 1015.8 |
| 20260507083542 | 53 | 0 | 0.9 | 6.1 | 0.00 | 0.00 | 0.00 | 75 | 1015.7 |
| 20260507083052 | 54 | 125 | 2.6 | 6.1 | 0.00 | 0.00 | 0.00 | 77 | 1015.8 |
| 20260507082542 | 53 | 99 | 3.5 | 7.8 | 0.00 | 0.00 | 0.00 | 79 | 1015.7 |
| 20260507082043 | 53 | 120 | 2.6 | 7.8 | 0.00 | 0.00 | 0.00 | 78 | 1015.8 |
| 20260507081555 | 53 | 57 | 3.5 | 7.8 | 0.00 | 0.00 | 0.00 | 78 | 1015.7 |
| 20260507081042 | 54 | 189 | 1.7 | 7.0 | 0.00 | 0.00 | 0.00 | 79 | 1015.7 |
| 20260507080541 | 54 | 136 | 1.7 | 7.0 | 0.00 | 0.00 | 0.00 | 79 | 1015.8 |
| 20260507075541 | 53 | 182 | 0.0 | 3.5 | 0.00 | 0.00 | 0.00 | 86 | 1015.6 |
| 20260507075041 | 52 | 0 | 0.0 | 3.5 | 0.00 | 0.00 | 0.00 | 88 | 1015.7 |
| 20260507074549 | 51 | 0 | 0.0 | 4.3 | 0.00 | 0.00 | 0.00 | 88 | 1015.7 |
| 20260507074040 | 51 | 149 | 0.9 | 4.3 | 0.00 | 0.00 | 0.00 | 89 | 1015.7 |
| 20260507073544 | 50 | 0 | 0.0 | 2.6 | 0.00 | 0.00 | 0.00 | 90 | 1015.7 |
| 20260507073043 | 50 | 0 | 0.0 | 1.7 | 0.00 | 0.00 | 0.00 | 90 | 1015.7 |
| 20260507072540 | 50 | 118 | 0.0 | 1.7 | 0.00 | 0.00 | 0.00 | 91 | 1015.6 |
| 20260507072040 | 50 | 0 | 0.0 | 1.7 | 0.00 | 0.00 | 0.00 | 91 | 1015.5 |
| 20260507071542 | 50 | 0 | 0.0 | 2.6 | 0.00 | 0.00 | 0.00 | 92 | 1015.6 |
| 20260507071043 | 49 | 0 | 0.0 | 2.6 | 0.00 | 0.00 | 0.00 | 92 | 1015.7 |
| 20260507070541 | 49 | 0 | 0.0 | 0.0 | 0.00 | 0.00 | 0.00 | 92 | 1015.7 |
| 20260507065542 | 49 | 0 | 0.0 | 1.7 | 0.00 | 0.00 | 0.00 | 92 | 1015.6 |
| 20260507065040 | 48 | 0 | 0.0 | 1.7 | 0.00 | 0.00 | 0.00 | 93 | 1015.6 |
| 20260507064621 | 48 | 0 | 0.0 | 1.7 | 0.00 | 0.00 | 0.00 | 93 | 1015.6 |
| 20260507064041 | 48 | 0 | 0.0 | 1.7 | 0.00 | 0.00 | 0.00 | 93 | 1015.5 |
| 20260507063541 | 48 | 0 | 0.0 | 1.7 | 0.00 | 0.00 | 0.00 | 93 | 1015.5 |
| 20260507063051 | 47 | 0 | 0.0 | 0.0 | 0.00 | 0.00 | 0.00 | 93 | 1015.5 |
| 20260507062541 | 47 | 0 | 0.0 | 0.0 | 0.00 | 0.00 | 0.00 | 93 | 1015.5 |
| 20260507062042 | 47 | 0 | 0.0 | 0.0 | 0.00 | 0.00 | 0.00 | 93 | 1015.4 |
| 20260507061545 | 46 | 0 | 0.0 | 0.0 | 0.00 | 0.00 | 0.00 | 93 | 1015.4 |
| 20260507061042 | 46 | 0 | 0.0 | 0.0 | 0.00 | 0.00 | 0.00 | 93 | 1015.5 |
| 20260507060541 | 45 | 0 | 0.0 | 0.0 | 0.00 | 0.00 | 0.00 | 93 | 1015.4 |
| 20260507060107 | 45 | 0 | 0.0 | 0.0 | 0.00 | 0.00 | 0.00 | 93 | 1015.3 |
| 20260507055543 | 44 | 0 | 0.0 | 0.0 | 0.00 | 0.00 | 0.00 | 92 | 1015.2 |
| 20260507055041 | 44 | 0 | 0.0 | 0.0 | 0.00 | 0.00 | 0.00 | 92 | 1015.3 |
| 20260507054557 | 43 | 0 | 0.0 | 0.0 | 0.00 | 0.00 | 0.00 | 92 | 1015.3 |
| 20260507054041 | 43 | 0 | 0.0 | 0.0 | 0.00 | 0.00 | 0.00 | 92 | 1015.2 |
| 20260507053541 | 43 | 0 | 0.0 | 0.0 | 0.00 | 0.00 | 0.00 | 92 | 1015.1 |
| 20260507053048 | 43 | 0 | 0.0 | 0.0 | 0.00 | 0.00 | 0.00 | 92 | 1015.2 |
| 20260507052540 | 42 | 0 | 0.0 | 0.0 | 0.00 | 0.00 | 0.00 | 92 | 1015.1 |
| 20260507052041 | 42 | 0 | 0.0 | 0.0 | 0.00 | 0.00 | 0.00 | 92 | 1015.1 |
| 20260507051603 | 42 | 0 | 0.0 | 0.0 | 0.00 | 0.00 | 0.00 | 92 | 1015.1 |
| 20260507051042 | 42 | 0 | 0.0 | 0.0 | 0.00 | 0.00 | 0.00 | 92 | 1015.0 |
| 20260507050541 | 42 | 0 | 0.0 | 0.0 | 0.00 | 0.00 | 0.00 | 92 | 1015.0 |
| 20260507050052 | 42 | 0 | 0.0 | 0.0 | 0.00 | 0.00 | 0.00 | 92 | 1015.0 |
| 20260507045540 | 42 | 0 | 0.0 | 0.0 | 0.00 | 0.00 | 0.00 | 92 | 1015.0 |
| 20260507045040 | 41 | 0 | 0.0 | 0.0 | 0.00 | 0.00 | 0.00 | 91 | 1015.1 |
| 20260507044556 | 41 | 0 | 0.0 | 0.0 | 0.00 | 0.00 | 0.00 | 91 | 1015.0 |
| 20260507044043 | 41 | 0 | 0.0 | 0.0 | 0.00 | 0.00 | 0.00 | 91 | 1015.0 |
| 20260507043541 | 41 | 0 | 0.0 | 0.0 | 0.00 | 0.00 | 0.00 | 91 | 1015.0 |
| 20260507043055 | 41 | 0 | 0.0 | 0.0 | 0.00 | 0.00 | 0.00 | 91 | 1015.0 |
| 20260507042541 | 41 | 0 | 0.0 | 0.0 | 0.00 | 0.00 | 0.00 | 91 | 1015.0 |
| 20260507042040 | 41 | 0 | 0.0 | 0.0 | 0.00 | 0.00 | 0.00 | 91 | 1015.0 |
| 20260507041543 | 42 | 0 | 0.0 | 0.9 | 0.00 | 0.00 | 0.00 | 91 | 1015.0 |
| 20260507041041 | 42 | 0 | 0.0 | 0.9 | 0.00 | 0.00 | 0.00 | 91 | 1015.1 |
| 20260507040541 | 42 | 0 | 0.0 | 0.0 | 0.00 | 0.00 | 0.00 | 91 | 1015.0 |
| 20260507040051 | 42 | 0 | 0.0 | 0.9 | 0.00 | 0.00 | 0.00 | 91 | 1015.0 |
| 20260507035540 | 42 | 0 | 0.0 | 0.9 | 0.00 | 0.00 | 0.00 | 90 | 1015.0 |
| 20260507035040 | 42 | 0 | 0.0 | 0.0 | 0.00 | 0.00 | 0.00 | 90 | 1015.0 |
| 20260507034547 | 42 | 0 | 0.0 | 0.0 | 0.00 | 0.00 | 0.00 | 91 | 1015.0 |
| 20260507034041 | 42 | 0 | 0.0 | 0.0 | 0.00 | 0.00 | 0.00 | 91 | 1015.0 |
| 20260507033541 | 42 | 0 | 0.0 | 0.0 | 0.00 | 0.00 | 0.00 | 91 | 1014.9 |
| 20260507033048 | 42 | 0 | 0.0 | 0.0 | 0.00 | 0.00 | 0.00 | 91 | 1014.9 |
| 20260507032541 | 42 | 0 | 0.0 | 0.0 | 0.00 | 0.00 | 0.00 | 91 | 1015.0 |
| 20260507032044 | 42 | 0 | 0.0 | 0.0 | 0.00 | 0.00 | 0.00 | 91 | 1015.0 |
| 20260507031547 | 42 | 0 | 0.0 | 0.0 | 0.00 | 0.00 | 0.00 | 91 | 1014.9 |
| 20260507031043 | 42 | 0 | 0.0 | 0.0 | 0.00 | 0.00 | 0.00 | 90 | 1015.0 |
| 20260507030541 | 42 | 0 | 0.0 | 0.0 | 0.00 | 0.00 | 0.00 | 90 | 1015.0 |
| 20260507030051 | 42 | 0 | 0.0 | 0.0 | 0.00 | 0.00 | 0.00 | 90 | 1014.9 |
| 20260507025540 | 42 | 0 | 0.0 | 0.0 | 0.00 | 0.00 | 0.00 | 90 | 1015.0 |
| 20260507025041 | 42 | 0 | 0.0 | 0.9 | 0.00 | 0.00 | 0.00 | 90 | 1015.0 |
| 20260507024549 | 42 | 0 | 0.0 | 0.9 | 0.00 | 0.00 | 0.00 | 90 | 1015.0 |
| 20260507024040 | 42 | 0 | 0.0 | 0.9 | 0.00 | 0.00 | 0.00 | 89 | 1014.9 |
| 20260507023540 | 42 | 0 | 0.0 | 1.7 | 0.00 | 0.00 | 0.00 | 89 | 1014.9 |
| 20260507023048 | 42 | 0 | 0.0 | 1.7 | 0.00 | 0.00 | 0.00 | 89 | 1014.8 |
| 20260507022542 | 42 | 0 | 0.0 | 1.7 | 0.00 | 0.00 | 0.00 | 89 | 1014.7 |
| 20260507022042 | 42 | 0 | 0.0 | 0.9 | 0.00 | 0.00 | 0.00 | 89 | 1014.7 |
| 20260507021548 | 43 | 0 | 0.0 | 2.6 | 0.00 | 0.00 | 0.00 | 89 | 1014.6 |
| 20260507021043 | 43 | 0 | 0.0 | 2.6 | 0.00 | 0.00 | 0.00 | 89 | 1014.7 |
| 20260507020541 | 43 | 0 | 0.0 | 2.6 | 0.00 | 0.00 | 0.00 | 89 | 1014.7 |
| 20260507015545 | 43 | 0 | 0.0 | 2.6 | 0.00 | 0.00 | 0.00 | 89 | 1014.7 |
| 20260507015044 | 43 | 314 | 0.0 | 0.0 | 0.00 | 0.00 | 0.00 | 89 | 1014.6 |
| 20260507014548 | 43 | 0 | 0.0 | 0.9 | 0.00 | 0.00 | 0.00 | 89 | 1014.5 |
| 20260507014041 | 43 | 0 | 0.0 | 0.9 | 0.00 | 0.00 | 0.00 | 89 | 1014.6 |
| 20260507013543 | 43 | 0 | 0.0 | 0.9 | 0.00 | 0.00 | 0.00 | 89 | 1014.6 |
| 20260507013047 | 43 | 0 | 0.0 | 0.9 | 0.00 | 0.00 | 0.00 | 88 | 1014.5 |
| 20260507012542 | 43 | 0 | 0.0 | 0.9 | 0.00 | 0.00 | 0.00 | 89 | 1014.6 |
| 20260507012041 | 43 | 0 | 0.0 | 0.9 | 0.00 | 0.00 | 0.00 | 88 | 1014.6 |
| 20260507011550 | 43 | 0 | 0.0 | 0.9 | 0.00 | 0.00 | 0.00 | 88 | 1014.7 |
| 20260507011040 | 43 | 0 | 0.0 | 0.0 | 0.00 | 0.00 | 0.00 | 88 | 1014.7 |
| 20260507010541 | 43 | 0 | 0.0 | 0.9 | 0.00 | 0.00 | 0.00 | 88 | 1014.7 |
| 20260507010100 | 43 | 0 | 0.0 | 1.7 | 0.00 | 0.00 | 0.00 | 88 | 1014.7 |
| 20260507005541 | 43 | 0 | 0.0 | 1.7 | 0.00 | 0.00 | 0.00 | 87 | 1014.7 |
| 20260507005041 | 43 | 0 | 0.0 | 2.6 | 0.00 | 0.00 | 0.00 | 87 | 1014.6 |
| 20260507004545 | 43 | 0 | 0.0 | 2.6 | 0.00 | 0.00 | 0.00 | 87 | 1014.6 |
| 20260507004042 | 43 | 348 | 0.0 | 1.7 | 0.00 | 0.00 | 0.00 | 87 | 1014.7 |
| 20260507003541 | 44 | 0 | 0.0 | 1.7 | 0.00 | 0.00 | 0.00 | 87 | 1014.7 |
| 20260507003052 | 44 | 0 | 0.0 | 0.9 | 0.00 | 0.00 | 0.00 | 86 | 1014.7 |
| 20260507002541 | 44 | 0 | 0.0 | 0.0 | 0.00 | 0.00 | 0.00 | 86 | 1014.9 |
| 20260507002042 | 44 | 0 | 0.0 | 0.0 | 0.00 | 0.00 | 0.00 | 86 | 1014.8 |
| 20260507001555 | 44 | 0 | 0.0 | 0.0 | 0.00 | 0.00 | 0.00 | 86 | 1014.8 |
| 20260507001041 | 44 | 0 | 0.0 | 0.0 | 0.00 | 0.00 | 0.00 | 85 | 1014.8 |
| 20260507000541 | 44 | 0 | 0.0 | 0.0 | 0.00 | 0.00 | 0.00 | 85 | 1014.9 |
| 20260507000052 | 44 | 0 | 0.0 | 0.0 | 0.00 | 0.00 | 0.00 | 85 | 1014.9 |
| 20260506235543 | 45 | 0 | 0.0 | 0.0 | 0.00 | 0.00 | 0.00 | 85 | 1014.9 |
| 20260506235041 | 45 | 0 | 0.0 | 0.0 | 0.00 | 0.00 | 0.00 | 85 | 1014.8 |
| 20260506234558 | 45 | 0 | 0.0 | 0.0 | 0.00 | 0.00 | 0.00 | 84 | 1014.7 |
| 20260506234041 | 45 | 0 | 0.0 | 1.7 | 0.00 | 0.00 | 0.00 | 84 | 1014.7 |
| 20260506233545 | 45 | 0 | 0.0 | 1.7 | 0.00 | 0.00 | 0.00 | 84 | 1014.7 |
| 20260506233052 | 45 | 0 | 0.0 | 1.7 | 0.00 | 0.00 | 0.00 | 84 | 1014.7 |
| 20260506232542 | 46 | 308 | 0.0 | 1.7 | 0.00 | 0.00 | 0.00 | 84 | 1014.6 |
| 20260506232041 | 46 | 0 | 0.0 | 1.7 | 0.00 | 0.00 | 0.00 | 83 | 1014.7 |
| 20260506231606 | 46 | 0 | 0.0 | 1.7 | 0.00 | 0.00 | 0.00 | 83 | 1014.6 |
| 20260506231041 | 46 | 0 | 0.0 | 1.7 | 0.00 | 0.00 | 0.00 | 83 | 1014.6 |
| 20260506230541 | 46 | 0 | 0.0 | 1.7 | 0.00 | 0.00 | 0.00 | 82 | 1014.6 |
| 20260506230109 | 47 | 0 | 0.0 | 2.6 | 0.00 | 0.00 | 0.00 | 82 | 1014.7 |
| 20260506225541 | 47 | 0 | 0.0 | 2.6 | 0.00 | 0.00 | 0.00 | 82 | 1014.6 |
| 20260506225041 | 47 | 328 | 0.0 | 2.6 | 0.00 | 0.00 | 0.00 | 82 | 1014.7 |
| 20260506224553 | 47 | 0 | 0.0 | 2.6 | 0.00 | 0.00 | 0.00 | 81 | 1014.6 |